THORAD DELTA 1 DEB

Satellite information

Favourite Embed

Satellite Type and Status

DEBRISIN ORBIT

Key statistics

Satellite THORAD DELTA 1 DEB at a glance.

Uptime

18436

Days in orbit

Revolutions

≈ 13.9

Per day

Orbit

SSO

Sun Synchronous Orbit

Inclination

103.0

Latest

Satellite identification and parameters

Extended collection of information and parameters for THORAD DELTA 1 DEB.

Object identification

Identified? True

Debris? True

Object name: THORAD DELTA 1 DEB

International designator: 1974-089EF

Object number (NORAD): 9988

Object ID (CCSDS): 9988

Country: UNITED STATES OF AMERICA (US)

Current information (Y/N): Y

RCS size: SMALL

Orbital parameters

Period: 103.362 minutes

Inclination: 103.0431 deg

SMA: 7295.698 km

Apoapsis: 1087.358 km

Periapsis: 747.768 km

RAAN: 23.095 deg

Eccentricy: 0.0232733

Argument of periapsis: 108.794 deg

Mean anomaly: 253.8605 deg

Mean motion: 13.93164846 rev/day

Mean motion (dot): 0.00002838 rev/day2

B* drag term: 0.0017873 1/REarth

Two-line elements (TLE)

Creation date: May 6, 2025, 3:54 a.m.

Reference frame: TEME

Reference center: EARTH

Epoch: May 5, 2025, 3:35 p.m. UTC

TLE line 0: 0 THORAD DELTA 1 DEB

TLE line 1: 1 09988U 74089EF 25125.64931921 .00002838 00000-0 17873-2 0 9991

TLE line 2: 2 09988 103.0431 23.0950 0232733 108.7940 253.8605 13.93164846447667

Live tracking on map

Real-time ground track for satellite THORAD DELTA 1 DEB.

In-orbit conjunctions

A list of the most updated potential collisions computed for object THORAD DELTA 1 DEB.

Target Orbit TCA Probability of collision Miss distance Type
COSMOS 2251 DEB LEO 2024-09-27 22:14:07 0.0001258865 367.0 (m) DEBRIS
IRS P2 SSO 2024-06-11 14:20:27 0.000133896 298.0 (m) PAYLOAD

Associated space launch

Meteorological satellite using radiometric imaging

THORAD DELTA 1 DEB was lifted into orbit during the mission ‘Delta 2310 | NOAA 4’, on board a Delta 2310 space rocket.

The launch took place on Nov. 15, 1974, 5:11 p.m. from Space Launch Complex 2W.

For more information about the launch, click the button.

Launch to space Delta 2310 | NOAA 4
Delta 2310 | NOAA 4

Agency: N/A

Status: Launch Successful

Launch date: Nov. 15, 1974, 5:11 p.m. UTC

Rocket: Delta 2310

Launch pad: Space Launch Complex 2W

Location: Vandenberg SFB, CA, USA

...

Latest news about this satellite

There are no fresh news available about this satellite. Check back as we update our databases every day.


Newsletter sign-up

Weekly statistics, charts and insights to help you stay on top of the space industry.